Location: Shepherdstown, WV
(39.4326°N, 77.8042°W)
Time: 04:39:25
(UTC-04:00)

SR - Pass Details

Date: 10 August 2021
Orbit: 581 x 874 km, 66.7° (Epoch: 24 September)

Event Time Altitude Azimuth Distance (km) Brightness Sun altitude
Rises 05:41:40 0° 233° (SW) 3,432 - -7.5°
Exits shadow 05:44:00 - 240° (WSW) 2,615 ? -7.1°
Reaches altitude 10° 05:44:24 10° 242° (WSW) 2,476 ? -7.0°
Maximum altitude 05:49:36 34° 306° (NW) 1,319 ? -6.1°
Drops below altitude 10° 05:54:32 10° 12° (NNE) 2,348 ? -5.3°
Sets 05:57:05 0° 21° (NNE) 3,230 ? -4.8°
